Regional Weather Roundup
Issued by NWS

Home | Current Version | Previous Version | Graphics & Text | Print | Product List | Glossary On
Versions: 1 2 3 4 5 6 7 8 9 10 11 12 13 14 15 16 17 18 19 20 21 22 23 24 25 26 27 28 29 30 31 32 33 34 35 36 37 38 39 40 41 42 43 44 45 46 47 48 49 50
000
ASUS43 KOAX 040902
RWRNE

WEATHER ROUNDUP FOR NEBRASKA
NATIONAL WEATHER SERVICE OMAHA NE
400 AM CDT WED MAY 04 2016

NOTES: SATELLITE DATA IS BEING USED TO AUGMENT CLOUD COVER ABOVE
       12000 FEET.
       "FAIR" INDICATES FEW OR NO CLOUDS BELOW 12,000 FEET WITH NO
       SIGNIFICANT WEATHER AND/OR OBSTRUCTIONS TO VISIBILITY.

  * THESE STATIONS DO NOT REPORT WEATHER SUCH AS RAIN...SNOW OR FOG.

NEZ001>004-019>022-054>056-041000-
NEBRASKA PANHANDLE

CITY           SKY/WX    TMP DP  RH WIND       PRES   REMARKS
SCOTTSBLUFF    CLEAR     45  39  79 NW9       30.18S
ALLIANCE       CLEAR     36  35  96 W7        30.15S WCI  30
CHADRON        CLEAR     41  38  89 SW6       30.14F
KIMBALL        CLEAR     37  35  93 W5        30.22S WCI  34
SIDNEY         CLEAR     41  36  82 NW9       30.19S
$$

NEZ057>060-069>072-079>082-041000-
SOUTHWEST NEBRASKA

CITY           SKY/WX    TMP DP  RH WIND       PRES   REMARKS
NORTH PLATTE   CLEAR     41  38  89 NW9       30.09R
IMPERIAL       CLEAR     47  38  71 NW9       30.13S
LEXINGTON      CLEAR     45  40  84 NW7       30.06R
MCCOOK         CLEAR     44  38  79 W8        30.08S
$$

NEZ005>010-023>029-035>040-094-041000-
NORTH CENTRAL NEBRASKA

CITY           SKY/WX    TMP DP  RH WIND       PRES   REMARKS
VALENTINE      CLEAR     43  37  79 CALM      30.10R
AINSWORTH      CLEAR     46  39  76 NW6       30.09R
BROKEN BOW     CLEAR     46  40  79 N8        30.06R
ORD            CLEAR     44  40  85 NW7       30.03R
$$

NEZ041-046>049-061>064-073>077-083>087-041000-
SOUTH CENTRAL NEBRASKA

CITY           SKY/WX    TMP DP  RH WIND       PRES   REMARKS
GRAND ISLAND   CLEAR     48  42  80 NW9       30.01R
AURORA         PTCLDY    49  43  80 NW8       30.00R
HASTINGS       CLEAR     50  42  74 N10       30.01R
KEARNEY *      CLEAR     48  39  71 NW7       30.04R
YORK           CLEAR     48  43  81 N9        29.99R
$$

NEZ011>018-030>034-042>045-041000-
NORTHEAST NEBRASKA

CITY           SKY/WX    TMP DP  RH WIND       PRES   REMARKS
NORFOLK        CLEAR     49  34  56 NW9       29.99R
ALBION         CLEAR     41  37  85 NW5       30.02R
BLAIR          CLEAR     54  34  47 N13       29.92R
COLUMBUS *     CLEAR     48  34  57 NW9       30.00R
FREMONT        CLEAR     45  40  83 NW6       29.95R
TEKAMAH        CLEAR     50  36  58 N16G23    29.93R
$$

NEZ050>053-065>068-078-088>093-041000-
SOUTHEAST NEBRASKA

CITY           SKY/WX    TMP DP  RH WIND       PRES   REMARKS
LINCOLN        CLEAR     53  41  63 N8        29.96R
OMAHA EPPLEY   CLEAR     52  38  58 N12       29.91R
BEATRICE       CLEAR     48  44  85 NW7       29.95R
FALLS CITY     CLEAR     54  45  71 NW9       29.88R
NEBRASKA CITY  CLEAR     54  39  57 NW10      29.90R
$$

NEZ044-045-051>053-067-041000-
OMAHA AREA

CITY           SKY/WX    TMP DP  RH WIND       PRES   REMARKS
OMAHA EPPLEY   CLEAR     52  38  58 N12       29.91R
BLAIR          CLEAR     54  34  47 N13       29.92R
FREMONT        CLEAR     45  40  83 NW6       29.95R
OFFUTT AFB     CLEAR     51  39  63 NW12      29.90R
$$



USA.gov is the U.S. government's official web portal to all federal, state and local government web resources and services.